STARLINK-1199 (45201 NORAD) Tracking and Keplerian Element Data

This shows tracking and keplerian element data for the satellite.

Feedback or suggestion? Click here.




ElementValue
Catalog45201
NameSTARLINK-1199
Epoch Orbit175
Epoch Day196.91667824
Epoch Year2020
RAAN291.2582
Inclination52.9983
Eccentricity0.0001446
Argument of Perigee89.3052
Mean Anonmoly244.9747
Mean Motion15.05585392
Decay Rate-0.00038655
L11 45201U 20012Z 20196.91667824 -.00038655 00000-0 -26479-2 0 9997
L22 45201 52.9983 291.2582 0001446 89.3052 244.9747 15.05585392 1754

Live tracking and technical data element details for STARLINK-1199 (NORAD 45201). STARLINK-1199 can be tracked NOW for your location showing map with azimuth and elevation plus other details from your city location.

Track the satellite on the map from your city or location and see movement details for azimuth, elevation, latitude, longitude, range, height, and movement on the map or in text.







IsCatalogInMostPopularTable: catalog: 45201, numindb: 25
Update: records affected: 1



GetName: 45201 STARLINK-1199

Hit Count: updated at: Thu, 16 Jul 2020 03:30:56 GMT